sat.trackr.live / text

‹ back to catalog

STARLINK-3117

NORAD 49435 · 2021-104AD

PAYLOAD ACTIVE UNKNOWN

§ Identity

Operator
Country
US
Launch date
2021-11-13
Launch site
AFETR
Launch vehicle
Mass (kg)
RCS (m²)

Purposes: comms

External: N2YO · Heavens-Above · Gunter

§ Orbital elements

Epoch: 2026-09-20T04:00:03.000096Z

Period
93.90 min
Inclination
53.1596°
Eccentricity
0.0001284
Mean motion
15.33546970 rev/d
Perigee alt
464.4 km
Apogee alt
466.1 km
Semi-major
6,843.4 km
B*
4.7394e-5
RAAN
53.4303°
Arg perigee
65.8751°
Mean anomaly
143.7695°
Rev number
568

§ Raw data

STARLINK-31171 49435U 21104AD  26263.16670139  .00001186  00000+0  47394-4 0  99912 49435  53.1596  53.4303 0001284  65.8751 143.7695 15.33546970  5688

JSON: /api/v1/satellites/49435 · /tle

For live sub-satellite position, see the globe view (requires WebGL).

§ Visibility from observer

Set your observer location to see the next 7 days of passes ≥ 10°. The values pass through the URL so the page stays shareable.

No JS? Fill the form by hand. The geolocation button needs JavaScript.